BEC101 UAAA-UACC

Flight info

Callsign BEC101
Flight time N/A
Altitude 36000
Route ETEDA1J ETEDA W333 BANOS BANOS1G
Aircraft A321/M-SDE3FGHIRWY/LB1

Departure

Time 2026-05-05 18:02
Airport Almaty International Airport (UAAA)

Arrival

Time N/A
Airport Nursultan Nazarbayev International Airport (UACC)
Time Latitude Longitude Altitude Speed Heading
2026-05-05 17:31 43.34355 77.01499 2233 ft 0 kts 246°
2026-05-05 17:47 43.34355 77.01498 2233 ft 0 kts 246°
2026-05-05 17:47 43.34352 77.01490 2233 ft 0 kts 245°
2026-05-05 17:47 43.34345 77.01466 2234 ft 4 kts 249°
2026-05-05 17:48 43.34360 77.01424 2233 ft 7 kts 325°
2026-05-05 17:48 43.34406 77.01391 2232 ft 3 kts 351°
2026-05-05 17:48 43.34438 77.01387 2232 ft 6 kts 351°
2026-05-05 17:48 43.34497 77.01386 2230 ft 8 kts
2026-05-05 17:49 43.34535 77.01456 2230 ft 11 kts 90°
2026-05-05 17:49 43.34528 77.01572 2228 ft 13 kts 95°
2026-05-05 17:49 43.34520 77.01720 2227 ft 16 kts 94°
2026-05-05 17:49 43.34513 77.01882 2227 ft 17 kts 93°
2026-05-05 17:50 43.34508 77.02035 2228 ft 9 kts 91°
2026-05-05 17:50 43.34543 77.02090 2229 ft 9 kts 19°
2026-05-05 17:50 43.34621 77.02128 2226 ft 14 kts 19°
2026-05-05 17:50 43.34727 77.02175 2223 ft 13 kts 17°
2026-05-05 17:51 43.34780 77.02220 2223 ft 9 kts 71°
2026-05-05 17:51 43.34781 77.02311 2225 ft 9 kts 94°
2026-05-05 17:51 43.34772 77.02448 2226 ft 12 kts 95°
2026-05-05 17:51 43.34772 77.02570 2225 ft 10 kts 79°
2026-05-05 17:52 43.34782 77.02608 2225 ft 0 kts 68°
2026-05-05 17:52 43.34784 77.02624 2225 ft 0 kts 86°
2026-05-05 17:52 43.34787 77.02639 2225 ft 3 kts 74°
2026-05-05 17:52 43.34787 77.02644 2225 ft 0 kts 75°
2026-05-05 17:54 43.34792 77.02651 2224 ft 2 kts 56°
2026-05-05 17:54 43.34811 77.02692 2224 ft 6 kts 55°
2026-05-05 17:54 43.34849 77.02766 2223 ft 11 kts 55°
2026-05-05 17:54 43.34904 77.02874 2223 ft 15 kts 55°
2026-05-05 17:55 43.34972 77.03006 2222 ft 18 kts 55°
2026-05-05 17:55 43.35051 77.03160 2223 ft 20 kts 55°
2026-05-05 17:55 43.35163 77.03385 2225 ft 21 kts 56°
2026-05-05 17:55 43.35219 77.03499 2226 ft 21 kts 56°
2026-05-05 17:56 43.35302 77.03668 2228 ft 21 kts 56°
2026-05-05 17:56 43.35386 77.03841 2229 ft 21 kts 56°
2026-05-05 17:56 43.35474 77.04015 2231 ft 21 kts 56°
2026-05-05 17:56 43.35561 77.04192 2231 ft 22 kts 56°
2026-05-05 17:57 43.35650 77.04372 2232 ft 23 kts 56°
2026-05-05 17:57 43.35738 77.04556 2232 ft 23 kts 57°
2026-05-05 17:57 43.35831 77.04739 2234 ft 23 kts 56°
2026-05-05 17:57 43.35923 77.04926 2234 ft 23 kts 54°
2026-05-05 17:58 43.36019 77.05114 2233 ft 24 kts 56°
2026-05-05 17:58 43.36116 77.05311 2234 ft 24 kts 56°
2026-05-05 17:58 43.36211 77.05506 2236 ft 24 kts 56°
2026-05-05 17:58 43.36308 77.05707 2235 ft 25 kts 56°
2026-05-05 17:59 43.36395 77.05885 2237 ft 21 kts 55°
2026-05-05 17:59 43.36476 77.06046 2239 ft 11 kts 56°
2026-05-05 17:59 43.36491 77.06123 2240 ft 7 kts 110°
2026-05-05 17:59 43.36484 77.06139 2240 ft 0 kts 128°
2026-05-05 18:00 43.36481 77.06145 2240 ft 1 kts 132°
2026-05-05 18:00 43.36451 77.06178 2241 ft 12 kts 144°
2026-05-05 18:01 43.36361 77.06194 2243 ft 13 kts 194°
2026-05-05 18:01 43.36305 77.06148 2244 ft 2 kts 232°
2026-05-05 18:01 43.36286 77.06113 2244 ft 6 kts 234°
2026-05-05 18:01 43.36171 77.05880 2241 ft 64 kts 236°
2026-05-05 18:02 43.35785 77.05101 2237 ft 130 kts 235°
2026-05-05 18:02 43.35177 77.03871 2320 ft 173 kts 236°
2026-05-05 18:02 43.34488 77.02484 2896 ft 177 kts 235°
2026-05-05 18:02 43.33804 77.01076 3529 ft 182 kts 236°
2026-05-05 18:03 43.33132 76.99619 4158 ft 182 kts 237°
2026-05-05 18:03 43.32483 76.98089 4591 ft 188 kts 239°
2026-05-05 18:03 43.31836 76.96477 4994 ft 195 kts 239°
2026-05-05 18:03 43.31156 76.94863 5389 ft 203 kts 244°
2026-05-05 18:04 43.31022 76.92875 5638 ft 221 kts 285°
2026-05-05 18:04 43.31896 76.91061 5856 ft 239 kts 322°
2026-05-05 18:04 43.32605 76.90437 5991 ft 248 kts 333°
2026-05-05 18:04 43.34193 76.89368 6348 ft 264 kts 334°
2026-05-05 18:05 43.35898 76.88227 6669 ft 280 kts 333°
2026-05-05 18:05 43.37689 76.86980 7276 ft 288 kts 333°
2026-05-05 18:05 43.39468 76.85706 7958 ft 290 kts 332°
2026-05-05 18:05 43.41259 76.84405 8601 ft 293 kts 332°
2026-05-05 18:06 43.43663 76.82646 9520 ft 297 kts 332°
2026-05-05 18:06 43.44271 76.82182 9779 ft 298 kts 328°
2026-05-05 18:06 43.46252 76.79552 10541 ft 304 kts 301°
2026-05-05 18:06 43.47184 76.76853 10861 ft 318 kts 291°
2026-05-05 18:07 43.48008 76.73941 11225 ft 330 kts 290°
2026-05-05 18:07 43.48833 76.70998 11802 ft 334 kts 291°
2026-05-05 18:07 43.49686 76.68015 12420 ft 337 kts 291°
2026-05-05 18:07 43.50569 76.64983 13055 ft 340 kts 292°
2026-05-05 18:08 43.51767 76.60916 13865 ft 345 kts 292°
2026-05-05 18:08 43.52468 76.58955 14231 ft 348 kts 303°
2026-05-05 18:08 43.54193 76.56584 14757 ft 351 kts 328°
2026-05-05 18:08 43.56437 76.55332 15352 ft 351 kts 348°
2026-05-05 18:09 43.58852 76.54607 15920 ft 355 kts 349°
2026-05-05 18:09 43.61256 76.53906 16433 ft 359 kts 349°
2026-05-05 18:09 43.63718 76.53160 16966 ft 363 kts 349°
2026-05-05 18:09 43.66232 76.52372 17502 ft 367 kts 348°
2026-05-05 18:10 43.68712 76.51580 17998 ft 371 kts 348°
2026-05-05 18:10 43.71244 76.50769 18537 ft 374 kts 348°
2026-05-05 18:10 43.73783 76.49955 19061 ft 377 kts 348°
2026-05-05 18:10 43.76347 76.49130 19575 ft 379 kts 348°
2026-05-05 18:11 43.78939 76.48295 20101 ft 381 kts 348°
2026-05-05 18:11 43.81508 76.47465 20584 ft 384 kts 348°
2026-05-05 18:11 43.84121 76.46621 21107 ft 386 kts 348°
2026-05-05 18:11 43.86751 76.45771 21613 ft 388 kts 348°
2026-05-05 18:12 43.90250 76.44642 22282 ft 390 kts 347°
2026-05-05 18:12 43.92039 76.44064 22617 ft 392 kts 347°
2026-05-05 18:12 43.94707 76.43201 23093 ft 394 kts 347°
2026-05-05 18:12 43.97360 76.42340 23572 ft 395 kts 347°
2026-05-05 18:13 44.00051 76.41466 24033 ft 398 kts 347°
2026-05-05 18:13 44.02768 76.40585 24476 ft 400 kts 347°
2026-05-05 18:13 44.06403 76.39784 25010 ft 404 kts 359°
2026-05-05 18:13 44.08271 76.39938 25280 ft 405 kts
2026-05-05 18:14 44.11037 76.40919 25705 ft 406 kts 20°
2026-05-05 18:14 44.14532 76.42802 26253 ft 409 kts 22°
2026-05-05 18:14 44.16319 76.43806 26507 ft 410 kts 22°
2026-05-05 18:14 44.18973 76.45288 26876 ft 413 kts 22°
2026-05-05 18:15 44.21650 76.46764 27239 ft 415 kts 21°
2026-05-05 18:15 44.24345 76.48238 27608 ft 417 kts 21°
2026-05-05 18:15 44.27069 76.49721 27971 ft 419 kts 21°
2026-05-05 18:15 44.29795 76.51199 28326 ft 421 kts 20°
2026-05-05 18:16 44.32628 76.52194 28635 ft 422 kts
2026-05-05 18:16 44.35585 76.52141 28974 ft 422 kts 351°
2026-05-05 18:16 44.38397 76.51082 29297 ft 422 kts 338°
2026-05-05 18:16 44.41153 76.49500 29641 ft 424 kts 336°
2026-05-05 18:17 44.43886 76.47866 29933 ft 426 kts 336°
2026-05-05 18:17 44.47572 76.45665 30322 ft 429 kts 336°
2026-05-05 18:17 44.50316 76.44035 30618 ft 431 kts 336°
2026-05-05 18:17 44.53093 76.42391 30900 ft 433 kts 337°
2026-05-05 18:18 44.54943 76.41299 31079 ft 434 kts 337°
2026-05-05 18:18 44.57785 76.39624 31367 ft 436 kts 337°
2026-05-05 18:18 44.60583 76.37976 31658 ft 437 kts 337°
2026-05-05 18:18 44.63381 76.36327 31939 ft 438 kts 337°
2026-05-05 18:19 44.66200 76.34665 32288 ft 437 kts 336°
2026-05-05 18:19 44.69031 76.32993 32665 ft 436 kts 337°
2026-05-05 18:19 44.72748 76.30798 33143 ft 434 kts 337°
2026-05-05 18:19 44.75555 76.29138 33500 ft 433 kts 337°
2026-05-05 18:20 44.77412 76.28040 33714 ft 432 kts 337°
2026-05-05 18:20 44.80193 76.26394 34021 ft 431 kts 337°
2026-05-05 18:20 44.82949 76.24760 34287 ft 432 kts 338°
2026-05-05 18:20 44.85726 76.23113 34492 ft 433 kts 338°
2026-05-05 18:21 44.88527 76.21450 34672 ft 434 kts 338°
2026-05-05 18:21 44.91285 76.19812 34861 ft 435 kts 338°
2026-05-05 18:21 44.94095 76.18141 35037 ft 436 kts 337°
2026-05-05 18:21 44.96921 76.16458 35219 ft 436 kts 337°
2026-05-05 18:22 44.99707 76.14797 35411 ft 436 kts 337°
2026-05-05 18:22 45.02479 76.13141 35611 ft 436 kts 337°
2026-05-05 18:22 45.05301 76.11454 35805 ft 436 kts 337°
2026-05-05 18:22 45.08078 76.09792 35984 ft 436 kts 337°
2026-05-05 18:23 45.10910 76.08096 36107 ft 437 kts 337°
2026-05-05 18:23 45.16511 76.04733 36114 ft 437 kts 337°
2026-05-05 18:24 45.23080 76.00782 36117 ft 437 kts 337°
2026-05-05 18:24 45.28668 75.97413 36121 ft 437 kts 337°
2026-05-05 18:25 45.33356 75.94580 36123 ft 437 kts 337°
2026-05-05 18:25 45.38993 75.91166 36123 ft 437 kts 337°
2026-05-05 18:26 45.45501 75.87218 36125 ft 436 kts 337°
2026-05-05 18:26 45.50197 75.84362 36126 ft 435 kts 337°
2026-05-05 18:27 45.55792 75.80953 36125 ft 435 kts 337°
2026-05-05 18:27 45.61379 75.77539 36126 ft 434 kts 337°
2026-05-05 18:28 45.69690 75.72449 36133 ft 433 kts 336°
2026-05-05 18:28 45.75224 75.69055 36131 ft 432 kts 336°
2026-05-05 18:29 45.80764 75.65656 36128 ft 432 kts 336°
2026-05-05 18:29 45.87211 75.61685 36130 ft 433 kts 336°
2026-05-05 18:30 45.91829 75.58834 36133 ft 432 kts 336°
2026-05-05 18:30 45.97331 75.55429 36135 ft 432 kts 336°
2026-05-05 18:31 46.02895 75.51978 36134 ft 433 kts 336°
2026-05-05 18:31 46.08414 75.48546 36136 ft 434 kts 336°
2026-05-05 18:32 46.13977 75.45077 36134 ft 434 kts 336°
2026-05-05 18:32 46.19488 75.41634 36136 ft 434 kts 336°
2026-05-05 18:33 46.25068 75.38155 36135 ft 435 kts 336°
2026-05-05 18:33 46.30624 75.34712 36134 ft 435 kts 335°
2026-05-05 18:34 46.36167 75.31265 36139 ft 435 kts 335°
2026-05-05 18:34 46.41723 75.27798 36137 ft 435 kts 335°
2026-05-05 18:35 46.47233 75.24349 36134 ft 436 kts 335°
2026-05-05 18:35 46.52810 75.20853 36138 ft 436 kts 335°
2026-05-05 18:36 46.58353 75.17368 36140 ft 435 kts 335°
2026-05-05 18:36 46.63904 75.13869 36140 ft 435 kts 335°
2026-05-05 18:37 46.69436 75.10377 36142 ft 436 kts 335°
2026-05-05 18:37 46.75911 75.06277 36145 ft 436 kts 335°
2026-05-05 18:38 46.81472 75.02745 36142 ft 436 kts 335°
2026-05-05 18:38 46.86120 74.99789 36149 ft 436 kts 335°
2026-05-05 18:39 46.91785 74.96462 36151 ft 436 kts 338°
2026-05-05 18:39 46.97488 74.93336 36153 ft 437 kts 338°
2026-05-05 18:40 47.03196 74.90202 36150 ft 437 kts 338°
2026-05-05 18:40 47.08869 74.87071 36157 ft 437 kts 338°
2026-05-05 18:41 47.15546 74.83373 36154 ft 436 kts 338°
2026-05-05 18:41 47.20268 74.80748 36158 ft 436 kts 338°
2026-05-05 18:42 47.25966 74.77578 36163 ft 436 kts 338°
2026-05-05 18:42 47.32569 74.73889 36162 ft 436 kts 338°
2026-05-05 18:43 47.37318 74.71230 36164 ft 436 kts 338°
2026-05-05 18:43 47.43927 74.67525 36169 ft 436 kts 338°
2026-05-05 18:44 47.48697 74.64839 36170 ft 436 kts 338°
2026-05-05 18:44 47.54340 74.61662 36169 ft 436 kts 338°
2026-05-05 18:45 47.60031 74.58481 36172 ft 436 kts 338°
2026-05-05 18:45 47.65693 74.55312 36171 ft 436 kts 338°
2026-05-05 18:46 47.71410 74.52099 36177 ft 436 kts 337°
2026-05-05 18:46 47.75187 74.49972 36172 ft 437 kts 337°
2026-05-05 18:47 47.82775 74.45684 36176 ft 437 kts 337°
2026-05-05 18:47 47.88469 74.42458 36172 ft 437 kts 337°
2026-05-05 18:48 47.94132 74.39243 36170 ft 437 kts 337°
2026-05-05 18:48 47.99845 74.35989 36180 ft 437 kts 337°
2026-05-05 18:49 48.05548 74.32732 36179 ft 437 kts 336°
2026-05-05 18:49 48.12185 74.28937 36178 ft 437 kts 336°
2026-05-05 18:50 48.16947 74.26231 36182 ft 437 kts 336°
2026-05-05 18:50 48.23589 74.22482 36191 ft 438 kts 336°
2026-05-05 18:51 48.28385 74.19765 36189 ft 438 kts 336°
2026-05-05 18:51 48.34105 74.16512 36190 ft 438 kts 336°
2026-05-05 18:52 48.39831 74.13248 36195 ft 438 kts 336°
2026-05-05 18:52 48.45540 74.09983 36192 ft 438 kts 336°
2026-05-05 18:53 48.51295 74.06684 36194 ft 438 kts 336°
2026-05-05 18:53 48.57015 74.03400 36197 ft 439 kts 336°
2026-05-05 18:54 48.62720 74.00111 36189 ft 438 kts 336°
2026-05-05 18:54 48.68432 73.96815 36188 ft 438 kts 336°
2026-05-05 18:55 48.74153 73.93503 36191 ft 438 kts 336°
2026-05-05 18:55 48.79884 73.90176 36182 ft 438 kts 336°
2026-05-05 18:56 48.85582 73.86860 36185 ft 438 kts 335°
2026-05-05 18:56 48.92238 73.82976 36186 ft 438 kts 335°
2026-05-05 18:57 48.96994 73.80191 36188 ft 438 kts 335°
2026-05-05 18:57 49.02712 73.76842 36183 ft 438 kts 335°